Location: Brookfield Center
(41.2406°N, 80.5579°W)
Time: 11:07:51
(UTC+00:00)

Cosmos 1980 - Pass Details

Date: 18 January 2020
Orbit: 838 x 849 km, 71.0° (Epoch: 18 February)

Event Time Altitude Azimuth Distance (km) Brightness Sun altitude
Rises 00:28:03 0° 336° (NNW) 3,419 7.1 -23.7°
Reaches altitude 10° 00:30:31 10° 336° (NNW) 2,480 6.3 -24.2°
Maximum altitude 00:36:14 89° 249° (WSW) 854 3.6 -25.2°
Enters shadow 00:39:06 31° 159° (SSE) 1,450 4.7 -25.8°
